Hourly Data Report for October 03, 2016

All times are specified in Local Standard Time (LST). Add 1 hour to adjust for Daylight Saving Time where and when it is observed.

FREDERICTON
NEW BRUNSWICK

45°52'08.000" N
66°32'14.000" W
20.70 m
8101505
71700
YFC

Download Data

Hourly Data (October 2016)
Hourly Data Report for October 3, 2016
Temp Definition
°C
Dew Point Temp Definition
°C
Rel Hum Definition
%
Wind Dir Definition
10's deg

Wind Spd Definition
km/h
Visibility Definition
km
Stn Press Definition
kPa
Hmdx Definition


Wind Chill Definition


Weather Definition


TIME
00:00 Legend Double Dagger 10.6 9.8 95 21 9 16.1 101.06     LegendNANA
01:00 Legend Double Dagger 10.8 10.2 96   0 16.1 101.04     LegendNANA
02:00 Legend Double Dagger 11.1 10.3 95 22 4 16.1 100.98     LegendNANA
03:00 Legend Double Dagger 10.8 10.4 97 22 5 16.1 100.92     LegendNANA
04:00 Legend Double Dagger 11.1 10.5 96 22 8 16.1 100.92     LegendNANA
05:00 Legend Double Dagger 11.3 10.5 95 23 5 16.1 100.94     LegendNANA
06:00 Legend Double Dagger 11.7 10.8 94 28 5 16.1 100.97     LegendNANA
07:00 Legend Double Dagger 12.4 10.8 90 29 8 16.1 101.04     Rain
08:00 Legend Double Dagger 13.2 10.6 84 33 9 16.1 101.11     LegendNANA
09:00 Legend Double Dagger 14.6 9.5 71 3 24 16.1 101.21     LegendNANA
10:00 Legend Double Dagger 13.8 9.2 73 5 24 16.1 101.32     LegendNANA
11:00 Legend Double Dagger 12.9 8.7 75 3 21 16.1 101.45     LegendNANA
12:00 Legend Double Dagger 12.8 7.9 72 6 21 16.1 101.55     LegendNANA
13:00 Legend Double Dagger 12.8 6.6 66 5 18 16.1 101.64     LegendNANA
14:00 Legend Double Dagger 13.1 5.9 61 8 15 16.1 101.65     LegendNANA
15:00 Legend Double Dagger 13.5 5.9 60 8 15 16.1 101.71     LegendNANA
16:00 Legend Double Dagger 13.9 5.4 56 8 13 16.1 101.74     LegendNANA
17:00 Legend Double Dagger 13.2 4.2 54 3 15 16.1 101.80     LegendNANA
18:00 Legend Double Dagger 9.6 4.0 68 6 8 16.1 101.87     LegendNANA
19:00 Legend Double Dagger 7.4 5.2 86 LegendMM 4 16.1 101.97     LegendNANA
20:00 Legend Double Dagger 7.0 4.8 86 8 5 16.1 102.06     LegendNANA
21:00 Legend Double Dagger 3.9 3.0 94 LegendMM 4 16.1 102.15     LegendNANA
22:00 Legend Double Dagger 2.8 1.9 94   0 16.1 102.25     LegendNANA
23:00 Legend Double Dagger 0.1 -0.2 98   0 16.1 102.31     LegendNANA

Notes on Data Quality.

Legend

  • E = Estimated
  • M = Missing
  • NA = Not Available
  • ‡ = Partner data that is not subject to review by the National Climate Archives
Date modified: